Погода в Харабали

Россия / Астраханская область     47°24′33″N   47°15′07″E
темп.,
°C
ветер,
м/с
пор.,
м/с
влажн.,
%
обл.,
%
осадки,
мм/ч
давл.,
гПа
погр.,
м
5 марта, пт
пт501:00+1юз714700 0.0 1017364
04:00+1юз816750 0.0 1017390
07:00+1юз815870 0.0 1016420
10:00+3юз9147331 0.0 1016622
13:00+7зюз1013570 0.0 10151058
16:00+9зюз1013503 0.0 10151364
19:00+6юз51262100 0.0 1016308
22:00+5юз51167100 0.0 1017274
6 марта, сб
сб601:00+5юз597195 0.0 1016237
04:00+3юз597894 0.0 1017170
07:00+2юз5117739 0.0 1016212
10:00+7зюз7116124 0.0 1016570
13:00+11юз1013380 0.0 10141382
16:00+12зюз914372 0.0 10111841
19:00+7зюз455574 0.0 101091
22:00+7юз4106187 0.1 1008360
7 марта, вс
вс701:00+6зюз51188100 0.9 1007565
04:000сз91286100 2.2 1010551
07:00−2сз81181100 0.2 1014776
10:00−1ссз7106892 0.2 1018893
13:00+1сз665584 0.0 10191251
16:00+2зсз566091 0.1 10191155
19:000з476164 0.1 1020256
22:00−1юз486251 0.1 1020223
8 марта, пн
пн801:00−1юз6125515 0.0 1019500
04:00−1юз814617 0.0 1018640
07:00−2юз814680 0.0 1017636
10:00+2зюз1014600 0.0 1017871
13:00+5юз1013500 0.0 10161416
16:00+6зюз10134741 0.0 10141612
19:00+3юз71360100 0.0 1014517
22:00+2юз81564100 0.0 1015499
9 марта, вт
вт901:00+1зюз61276100 0.0 1016433
04:00−1з348884 0.0 101676
07:000юз2385100 0.0 1016131
10:00+2юз4680100 0.0 1016601
13:00+5юз71063100 0.0 10151130
16:00+6юз7953100 0.0 10131453
19:00+5юз71260100 0.1 1011580
22:00+4юз51264100 0.1 1011469